Previsão horária em Abdukarim

Hoje, 14 Abril, Quarta-feira

Tempo Temperatura Precipitação Vento Pressão Humidade
00:00 +13°C° 0 mm 1 m/s 698 mmHg 59%
01:00 +13°C° 0 mm 1 m/s 698 mmHg 59%
02:00 +13°C° 0 mm 1 m/s 697 mmHg 59%
03:00 +13°C° 0 mm 1 m/s 697 mmHg 60%
04:00 +12°C° 0 mm 1 m/s 697 mmHg 61%
05:00 +12°C° 0 mm 1 m/s 697 mmHg 62%
06:00 +13°C° 0.1 mm 1 m/s 697 mmHg 59%
07:00 +15°C° 0.1 mm 1 m/s 697 mmHg 56%
08:00 +16°C° 0.1 mm 1 m/s 698 mmHg 53%
09:00 +18°C° 0 mm 1 m/s 698 mmHg 47%
10:00 +19°C° 0 mm 2 m/s 698 mmHg 41%
11:00 +21°C° 0 mm 2 m/s 698 mmHg 35%
12:00 +21°C° 0 mm 3 m/s 697 mmHg 35%
13:00 +22°C° 0 mm 3 m/s 697 mmHg 34%
14:00 +23°C° 0 mm 4 m/s 697 mmHg 33%
15:00 +22°C° 0.1 mm 4 m/s 696 mmHg 37%
16:00 +21°C° 0.1 mm 3 m/s 696 mmHg 40%
17:00 +20°C° 0.1 mm 3 m/s 696 mmHg 44%
18:00 +19°C° 0 mm 2 m/s 696 mmHg 46%
19:00 +17°C° 0 mm 2 m/s 696 mmHg 48%
20:00 +16°C° 0 mm 1 m/s 696 mmHg 51%
21:00 +15°C° 0 mm 1 m/s 696 mmHg 49%
22:00 +15°C° 0 mm 1 m/s 696 mmHg 48%
23:00 +14°C° 0 mm 2 m/s 696 mmHg 47%

Amanhã, 15 Abril, Quinta-feira

Tempo Temperatura Precipitação Vento Pressão Humidade
00:00 +13°C° 0 mm 2 m/s 695 mmHg 47%
01:00 +13°C° 0 mm 1 m/s 695 mmHg 48%
02:00 +12°C° 0 mm 1 m/s 695 mmHg 48%
03:00 +14°C° 0 mm 1 m/s 696 mmHg 43%
04:00 +13°C° 0 mm 2 m/s 696 mmHg 45%
05:00 +12°C° 0 mm 2 m/s 695 mmHg 47%
06:00 +13°C° 0 mm 1 m/s 696 mmHg 45%
07:00 +14°C° 0 mm 1 m/s 696 mmHg 43%
08:00 +15°C° 0 mm 1 m/s 697 mmHg 40%
09:00 +18°C° 0 mm 1 m/s 696 mmHg 39%
10:00 +19°C° 0 mm 1 m/s 697 mmHg 35%
11:00 +21°C° 0 mm 1 m/s 697 mmHg 31%
12:00 +21°C° 0 mm 2 m/s 697 mmHg 30%
13:00 +23°C° 0 mm 2 m/s 697 mmHg 29%
14:00 +24°C° 0 mm 3 m/s 697 mmHg 27%
15:00 +18°C° 0 mm 2 m/s 697 mmHg 36%
16:00 +20°C° 0 mm 2 m/s 697 mmHg 31%
17:00 +22°C° 0 mm 3 m/s 697 mmHg 26%
18:00 +20°C° 0 mm 2 m/s 697 mmHg 32%
19:00 +18°C° 0 mm 2 m/s 696 mmHg 38%
20:00 +16°C° 0 mm 1 m/s 696 mmHg 44%
21:00 +15°C° 0 mm 1 m/s 696 mmHg 45%
22:00 +15°C° 0 mm 1 m/s 696 mmHg 46%
23:00 +14°C° 0 mm 1 m/s 696 mmHg 48%

Depois de amanhã, 16 Abril, Sexta-feira

Tempo Temperatura Precipitação Vento Pressão Humidade
00:00 +14°C° 0 mm 1 m/s 696 mmHg 47%
01:00 +14°C° 0 mm 1 m/s 695 mmHg 47%
02:00 +14°C° 0 mm 1 m/s 695 mmHg 46%
03:00 +14°C° 0 mm 1 m/s 695 mmHg 46%
04:00 +14°C° 0 mm 1 m/s 695 mmHg 47%
05:00 +14°C° 0 mm 1 m/s 695 mmHg 47%
06:00 +15°C° 0 mm 1 m/s 696 mmHg 46%
07:00 +16°C° 0 mm 1 m/s 696 mmHg 44%
08:00 +18°C° 0 mm 1 m/s 697 mmHg 43%
09:00 +19°C° 0 mm 1 m/s 697 mmHg 40%
10:00 +20°C° 0 mm 2 m/s 697 mmHg 38%
11:00 +21°C° 0 mm 2 m/s 697 mmHg 35%
12:00 +23°C° 0 mm 2 m/s 697 mmHg 34%
13:00 +24°C° 0 mm 3 m/s 697 mmHg 32%
14:00 +25°C° 0 mm 3 m/s 697 mmHg 30%
15:00 +24°C° 0 mm 3 m/s 697 mmHg 31%
16:00 +24°C° 0 mm 3 m/s 697 mmHg 32%
17:00 +24°C° 0 mm 3 m/s 697 mmHg 33%
18:00 +21°C° 0 mm 3 m/s 697 mmHg 37%
19:00 +19°C° 0 mm 3 m/s 697 mmHg 42%
20:00 +18°C° 0 mm 2 m/s 697 mmHg 47%
21:00 +17°C° 0 mm 2 m/s 696 mmHg 47%
22:00 +17°C° 0 mm 2 m/s 696 mmHg 47%
23:00 +16°C° 0 mm 2 m/s 696 mmHg 48%

17 Abril, Sábado

Tempo Temperatura Precipitação Vento Pressão Humidade
00:00 +16°C° 0 mm 2 m/s 696 mmHg 48%
01:00 +15°C° 0 mm 2 m/s 695 mmHg 49%
02:00 +15°C° 0 mm 2 m/s 695 mmHg 49%
03:00 +14°C° 0 mm 2 m/s 695 mmHg 50%
04:00 +14°C° 0 mm 2 m/s 695 mmHg 50%
05:00 +13°C° 0 mm 2 m/s 695 mmHg 51%
06:00 +15°C° 0 mm 2 m/s 696 mmHg 48%
07:00 +16°C° 0 mm 2 m/s 696 mmHg 45%
08:00 +17°C° 0 mm 2 m/s 697 mmHg 42%
09:00 +18°C° 0 mm 3 m/s 697 mmHg 38%
10:00 +20°C° 0 mm 3 m/s 697 mmHg 35%
11:00 +21°C° 0 mm 4 m/s 697 mmHg 31%
12:00 +22°C° 0 mm 4 m/s 697 mmHg 30%
13:00 +22°C° 0 mm 4 m/s 697 mmHg 30%
14:00 +23°C° 0 mm 4 m/s 696 mmHg 29%
15:00 +22°C° 0 mm 4 m/s 696 mmHg 29%
16:00 +22°C° 0 mm 3 m/s 697 mmHg 29%
17:00 +22°C° 0 mm 3 m/s 697 mmHg 30%
18:00 +21°C° 0.1 mm 3 m/s 697 mmHg 33%
19:00 +19°C° 0.1 mm 2 m/s 697 mmHg 36%
20:00 +18°C° 0.1 mm 2 m/s 698 mmHg 40%
21:00 +17°C° 0 mm 2 m/s 698 mmHg 45%
22:00 +16°C° 0 mm 2 m/s 698 mmHg 51%
23:00 +16°C° 0 mm 3 m/s 698 mmHg 56%

18 Abril, Domingo

Tempo Temperatura Precipitação Vento Pressão Humidade
00:00 +15°C° 0 mm 2 m/s 698 mmHg 57%
01:00 +15°C° 0 mm 2 m/s 698 mmHg 57%
02:00 +14°C° 0 mm 1 m/s 698 mmHg 58%
03:00 +14°C° 0 mm 2 m/s 698 mmHg 59%
04:00 +14°C° 0 mm 2 m/s 698 mmHg 60%
05:00 +13°C° 0 mm 2 m/s 698 mmHg 60%
06:00 +13°C° 0 mm 3 m/s 699 mmHg 57%
07:00 +14°C° 0 mm 3 m/s 699 mmHg 54%
08:00 +16°C° 0 mm 3 m/s 700 mmHg 50%
09:00 +18°C° 0 mm 4 m/s 700 mmHg 44%
10:00 +20°C° 0 mm 5 m/s 700 mmHg 38%
11:00 +21°C° 0 mm 6 m/s 700 mmHg 31%
12:00 +22°C° 0 mm 7 m/s 700 mmHg 30%
13:00 +22°C° 0 mm 8 m/s 700 mmHg 29%
14:00 +22°C° 0 mm 9 m/s 700 mmHg 27%
15:00 +22°C° 0 mm 8 m/s 700 mmHg 29%
16:00 +22°C° 0 mm 8 m/s 700 mmHg 31%
17:00 +21°C° 0 mm 7 m/s 699 mmHg 33%
18:00 +19°C° 0.1 mm 6 m/s 699 mmHg 37%
19:00 +17°C° 0.1 mm 4 m/s 700 mmHg 41%
20:00 +16°C° 0.1 mm 3 m/s 700 mmHg 44%
21:00 +15°C° 0 mm 2 m/s 699 mmHg 44%
22:00 +15°C° 0 mm 2 m/s 699 mmHg 44%
23:00 +14°C° 0 mm 1 m/s 699 mmHg 43%

19 Abril, Segunda-feira

Tempo Temperatura Precipitação Vento Pressão Humidade
00:00 +14°C° 0 mm 1 m/s 699 mmHg 44%
01:00 +14°C° 0 mm 1 m/s 699 mmHg 44%
02:00 +13°C° 0 mm 1 m/s 698 mmHg 44%
03:00 +13°C° 0 mm 1 m/s 698 mmHg 44%
04:00 +13°C° 0 mm 1 m/s 698 mmHg 45%
05:00 +13°C° 0 mm 1 m/s 698 mmHg 46%
06:00 +14°C° 0 mm 1 m/s 698 mmHg 44%
07:00 +15°C° 0 mm 1 m/s 698 mmHg 42%
08:00 +15°C° 0 mm 0 m/s 698 mmHg 40%
09:00 +19°C° 0 mm 1 m/s 698 mmHg 38%
10:00 +20°C° 0 mm 1 m/s 698 mmHg 35%
11:00 +20°C° 0 mm 2 m/s 698 mmHg 32%
12:00 +20°C° 0 mm 3 m/s 698 mmHg 31%
13:00 +20°C° 0 mm 3 m/s 698 mmHg 30%
14:00 +20°C° 0 mm 4 m/s 698 mmHg 28%
15:00 +19°C° 0 mm 3 m/s 698 mmHg 31%
16:00 +18°C° 0 mm 2 m/s 698 mmHg 35%
17:00 +19°C° 0 mm 1 m/s 698 mmHg 38%
18:00 +16°C° 0 mm 2 m/s 698 mmHg 43%
19:00 +15°C° 0 mm 2 m/s 698 mmHg 48%
20:00 +14°C° 0 mm 2 m/s 698 mmHg 54%
21:00 +13°C° 0 mm 2 m/s 698 mmHg 55%
22:00 +13°C° 0 mm 2 m/s 697 mmHg 57%
23:00 +13°C° 0 mm 1 m/s 697 mmHg 58%
Mostrar mais

Necessitamos do seu Consentimento

A Meteoprog e os seus Fornecedores de Serviços podem armazenar e aceder a dados pessoais como cookies, identificadores do dispositivo ou outras tecnologias semelhantes existentes no seu dispositivo e processar estes dados para personalizar conteúdos e anúncios, assim como funcionalidades nas redes sociais e análise de tráfego.

  • Armazenar e/ou aceder a informações no seu dispositivo

    Os cookies, identificadores do dispositivo ou outras informações podem ser armazenados ou acedidos no seu dispositivo, para os fins acima indicados.

  • Anúncios e conteúdos personalizados, medição de anúncios e conteúdos, dados sobre o público-alvo e desenvolvimento de produtos

    Os anúncios e os conteúdos podem ser personalizados com base num perfil. Podem ser adicionados dados adicionais para uma maior personalização dos anúncios e dos conteúdos. A eficácia dos anúncios e dos conteúdos pode ser medida. Podem ser obtidas informações sobre o público que visualizou os anúncios e os conteúdos. Estes dados podem ser usados para desenvolver ou melhorar sistemas, softwares ou a experiência do utilizador.

Ao clicar em "Eu concordo”, permitirá o uso de cookies, identificadores do dispositivo e web beacons mencionados ou outras tecnologias semelhantes. As configurações do navegador do seu dispositivo podem ser alteradas.

Para certos fins, podem ser invocados interesses legítimos ao invés de consentimento. Pode ler mais informação sobre este assunto na nossa Política de Privacidade e Cookies.